| time (UTC) | temp C | wind direction | speed KPH | gust KPH | rain 1hr cm | rain 24hr cm | rain mn cm | humidity % | barometer mb |
| 20260504081403 | 9 | 0 | 0.0 | 0.0 | 0.00 | 0.00 | 0.00 | 47 | 1002.3 |
| 20260504081202 | 10 | 0 | 0.0 | 0.0 | 0.00 | 0.00 | 0.00 | 45 | 1002.3 |
| 20260504081102 | 10 | 0 | 0.0 | 0.0 | 0.00 | 0.00 | 0.00 | 45 | 1002.3 |
| 20260504081004 | 10 | 0 | 0.0 | 0.0 | 0.00 | 0.00 | 0.00 | 45 | 1002.3 |
| 20260504080903 | 10 | 0 | 0.0 | 0.0 | 0.00 | 0.00 | 0.00 | 45 | 1002.3 |
| 20260504080803 | 10 | 0 | 0.0 | 0.0 | 0.00 | 0.00 | 0.00 | 44 | 1002.3 |
| 20260504080703 | 10 | 0 | 0.0 | 0.0 | 0.00 | 0.00 | 0.00 | 44 | 1002.3 |
| 20260504080603 | 10 | 0 | 0.0 | 0.0 | 0.00 | 0.00 | 0.00 | 44 | 1002.3 |
| 20260504080503 | 10 | 0 | 0.0 | 0.0 | 0.00 | 0.00 | 0.00 | 44 | 1002.3 |
| 20260504080403 | 10 | 0 | 0.0 | 0.0 | 0.00 | 0.00 | 0.00 | 44 | 1002.3 |
| 20260504080303 | 10 | 0 | 0.0 | 0.0 | 0.00 | 0.00 | 0.00 | 44 | 1002.3 |
| 20260504080203 | 11 | 0 | 0.0 | 0.0 | 0.00 | 0.00 | 0.00 | 44 | 1002.3 |
| 20260504070403 | 11 | 43 | 0.0 | 8.0 | 0.00 | 0.00 | 0.00 | 42 | 1000.1 |
| 20260504070303 | 11 | 44 | 3.2 | 8.0 | 0.00 | 0.00 | 0.00 | 42 | 1000.1 |
| 20260504070203 | 11 | 42 | 3.2 | 8.0 | 0.00 | 0.00 | 0.00 | 42 | 1000.1 |
| 20260504060203 | 12 | 3 | 8.0 | 9.7 | 0.00 | 0.00 | 0.00 | 40 | 999.0 |
| 20260504050703 | 12 | 342 | 0.0 | 11.3 | 0.00 | 0.00 | 0.00 | 39 | 999.0 |
| 20260504050602 | 13 | 342 | 0.0 | 11.3 | 0.00 | 0.00 | 0.00 | 39 | 999.0 |
| 20260504050503 | 13 | 343 | 6.4 | 11.3 | 0.00 | 0.00 | 0.00 | 39 | 999.0 |
| 20260504050403 | 13 | 342 | 6.4 | 11.3 | 0.00 | 0.00 | 0.00 | 39 | 999.0 |
| 20260504050203 | 13 | 341 | 6.4 | 11.3 | 0.00 | 0.00 | 0.00 | 39 | 999.0 |
| 20260504050103 | 13 | 341 | 6.4 | 11.3 | 0.00 | 0.00 | 0.00 | 39 | 999.0 |
| 20260504050004 | 13 | 341 | 8.0 | 11.3 | 0.00 | 0.00 | 0.00 | 39 | 999.0 |
| 20260504045903 | 13 | 341 | 8.0 | 11.3 | 0.00 | 0.00 | 0.00 | 39 | 999.0 |
| 20260504045703 | 13 | 341 | 8.0 | 11.3 | 0.00 | 0.00 | 0.00 | 39 | 999.0 |
| 20260504045602 | 13 | 340 | 9.7 | 9.7 | 0.00 | 0.00 | 0.00 | 39 | 999.0 |
| 20260504045503 | 13 | 340 | 8.0 | 9.7 | 0.00 | 0.00 | 0.00 | 39 | 999.0 |
| 20260504045403 | 13 | 341 | 8.0 | 12.9 | 0.00 | 0.00 | 0.00 | 39 | 999.0 |
| 20260504045304 | 13 | 342 | 8.0 | 12.9 | 0.00 | 0.00 | 0.00 | 39 | 999.0 |
| 20260504045203 | 13 | 342 | 8.0 | 12.9 | 0.00 | 0.00 | 0.00 | 39 | 999.0 |
| 20260504045102 | 13 | 343 | 8.0 | 12.9 | 0.00 | 0.00 | 0.00 | 39 | 999.0 |
| 20260504045004 | 13 | 343 | 8.0 | 12.9 | 0.00 | 0.00 | 0.00 | 39 | 999.0 |
| 20260504044903 | 13 | 342 | 8.0 | 12.9 | 0.00 | 0.00 | 0.00 | 39 | 999.0 |
| 20260504044803 | 13 | 342 | 6.4 | 12.9 | 0.00 | 0.00 | 0.00 | 39 | 999.0 |
| 20260504044703 | 13 | 343 | 8.0 | 12.9 | 0.00 | 0.00 | 0.00 | 39 | 999.0 |
| 20260504044603 | 13 | 344 | 8.0 | 12.9 | 0.00 | 0.00 | 0.00 | 39 | 999.0 |
| 20260504044503 | 13 | 344 | 8.0 | 12.9 | 0.00 | 0.00 | 0.00 | 39 | 999.0 |
| 20260504044403 | 13 | 344 | 6.4 | 11.3 | 0.00 | 0.00 | 0.00 | 39 | 999.0 |
| 20260504044203 | 13 | 342 | 8.0 | 11.3 | 0.00 | 0.00 | 0.00 | 39 | 999.0 |
| 20260504044103 | 13 | 342 | 8.0 | 11.3 | 0.00 | 0.00 | 0.00 | 39 | 999.0 |
| 20260504044004 | 13 | 341 | 6.4 | 11.3 | 0.00 | 0.00 | 0.00 | 39 | 999.0 |
| 20260504043802 | 13 | 340 | 8.0 | 11.3 | 0.00 | 0.00 | 0.00 | 38 | 999.0 |
| 20260504043703 | 13 | 340 | 8.0 | 11.3 | 0.00 | 0.00 | 0.00 | 38 | 999.0 |
| 20260504043603 | 13 | 339 | 8.0 | 12.9 | 0.00 | 0.00 | 0.00 | 38 | 999.0 |
| 20260504043503 | 13 | 340 | 8.0 | 12.9 | 0.00 | 0.00 | 0.00 | 38 | 999.0 |
| 20260504043403 | 13 | 340 | 8.0 | 12.9 | 0.00 | 0.00 | 0.00 | 38 | 999.0 |
| 20260504043303 | 13 | 340 | 8.0 | 12.9 | 0.00 | 0.00 | 0.00 | 38 | 999.0 |
| 20260504043102 | 13 | 339 | 8.0 | 12.9 | 0.00 | 0.00 | 0.00 | 37 | 999.0 |
| 20260504043004 | 13 | 338 | 8.0 | 12.9 | 0.00 | 0.00 | 0.00 | 37 | 999.0 |
| 20260504042903 | 13 | 338 | 8.0 | 16.1 | 0.00 | 0.00 | 0.00 | 37 | 999.0 |
| 20260504042803 | 14 | 339 | 8.0 | 16.1 | 0.00 | 0.00 | 0.00 | 37 | 999.0 |
| 20260504042703 | 14 | 337 | 9.7 | 16.1 | 0.00 | 0.00 | 0.00 | 37 | 999.0 |
| 20260504042603 | 14 | 337 | 9.7 | 16.1 | 0.00 | 0.00 | 0.00 | 37 | 999.0 |
| 20260504042403 | 14 | 337 | 11.3 | 16.1 | 0.00 | 0.00 | 0.00 | 37 | 999.0 |
| 20260504042304 | 14 | 335 | 11.3 | 16.1 | 0.00 | 0.00 | 0.00 | 37 | 999.0 |
| 20260504042103 | 14 | 336 | 11.3 | 16.1 | 0.00 | 0.00 | 0.00 | 37 | 999.0 |
| 20260504041903 | 14 | 336 | 11.3 | 16.1 | 0.00 | 0.00 | 0.00 | 37 | 999.0 |
| 20260504041802 | 14 | 336 | 11.3 | 16.1 | 0.00 | 0.00 | 0.00 | 37 | 999.0 |
| 20260504041702 | 14 | 336 | 12.9 | 16.1 | 0.00 | 0.00 | 0.00 | 37 | 999.0 |
| 20260504041603 | 14 | 336 | 12.9 | 16.1 | 0.00 | 0.00 | 0.00 | 37 | 999.0 |
| 20260504041503 | 14 | 334 | 12.9 | 16.1 | 0.00 | 0.00 | 0.00 | 37 | 999.0 |
| 20260504041403 | 14 | 333 | 12.9 | 16.1 | 0.00 | 0.00 | 0.00 | 37 | 999.0 |
| 20260504041303 | 14 | 336 | 12.9 | 16.1 | 0.00 | 0.00 | 0.00 | 37 | 999.0 |
| 20260504041104 | 14 | 330 | 12.9 | 17.7 | 0.00 | 0.00 | 0.00 | 37 | 999.0 |
| 20260504041004 | 14 | 329 | 11.3 | 17.7 | 0.00 | 0.00 | 0.00 | 37 | 999.0 |
| 20260504040903 | 14 | 329 | 12.9 | 17.7 | 0.00 | 0.00 | 0.00 | 37 | 999.0 |
| 20260504040803 | 15 | 327 | 14.5 | 17.7 | 0.00 | 0.00 | 0.00 | 37 | 999.0 |
| 20260504040702 | 15 | 327 | 12.9 | 17.7 | 0.00 | 0.00 | 0.00 | 37 | 999.0 |
| 20260504040603 | 15 | 327 | 12.9 | 17.7 | 0.00 | 0.00 | 0.00 | 36 | 999.0 |
| 20260504040403 | 15 | 325 | 12.9 | 17.7 | 0.00 | 0.00 | 0.00 | 36 | 999.0 |
| 20260504040303 | 15 | 325 | 14.5 | 17.7 | 0.00 | 0.00 | 0.00 | 36 | 999.0 |
| 20260504040203 | 15 | 326 | 16.1 | 17.7 | 0.00 | 0.00 | 0.00 | 36 | 999.0 |
| 20260504035902 | 15 | 326 | 14.5 | 20.9 | 0.00 | 0.00 | 0.00 | 37 | 999.0 |
| 20260504035803 | 15 | 326 | 14.5 | 22.5 | 0.00 | 0.00 | 0.00 | 37 | 999.0 |
| 20260504035703 | 15 | 324 | 12.9 | 27.4 | 0.00 | 0.00 | 0.00 | 37 | 999.0 |
| 20260504035603 | 15 | 323 | 12.9 | 27.4 | 0.00 | 0.00 | 0.00 | 36 | 999.0 |
| 20260504035503 | 15 | 324 | 12.9 | 27.4 | 0.00 | 0.00 | 0.00 | 36 | 999.0 |
| 20260504035403 | 15 | 323 | 14.5 | 27.4 | 0.00 | 0.00 | 0.00 | 36 | 999.0 |
| 20260504035304 | 15 | 321 | 14.5 | 27.4 | 0.00 | 0.00 | 0.00 | 36 | 999.0 |
| 20260504035202 | 15 | 320 | 17.7 | 27.4 | 0.00 | 0.00 | 0.00 | 36 | 999.0 |
| 20260504035103 | 15 | 319 | 17.7 | 27.4 | 0.00 | 0.00 | 0.00 | 36 | 999.0 |
| 20260504035004 | 15 | 320 | 16.1 | 27.4 | 0.00 | 0.00 | 0.00 | 36 | 999.0 |
| 20260504034903 | 15 | 323 | 19.3 | 27.4 | 0.00 | 0.00 | 0.00 | 36 | 999.0 |
| 20260504034803 | 15 | 324 | 22.5 | 27.4 | 0.00 | 0.00 | 0.00 | 36 | 999.0 |
| 20260504034603 | 15 | 326 | 16.1 | 17.7 | 0.00 | 0.00 | 0.00 | 37 | 999.0 |
| 20260504034503 | 14 | 325 | 16.1 | 16.1 | 0.00 | 0.00 | 0.00 | 37 | 999.0 |
| 20260504034403 | 14 | 325 | 12.9 | 16.1 | 0.00 | 0.00 | 0.00 | 37 | 999.0 |
| 20260504034303 | 14 | 324 | 12.9 | 16.1 | 0.00 | 0.00 | 0.00 | 37 | 999.0 |
| 20260504034203 | 14 | 324 | 14.5 | 16.1 | 0.00 | 0.00 | 0.00 | 37 | 999.0 |
| 20260504034103 | 14 | 324 | 9.7 | 14.5 | 0.00 | 0.00 | 0.00 | 37 | 999.0 |
| 20260504034004 | 14 | 322 | 9.7 | 14.5 | 0.00 | 0.00 | 0.00 | 37 | 999.0 |
| 20260504033903 | 14 | 319 | 12.9 | 14.5 | 0.00 | 0.00 | 0.00 | 37 | 999.0 |
| 20260504033803 | 14 | 315 | 12.9 | 14.5 | 0.00 | 0.00 | 0.00 | 37 | 999.0 |
| 20260504033703 | 14 | 313 | 11.3 | 12.9 | 0.00 | 0.00 | 0.00 | 37 | 999.0 |
| 20260504033603 | 14 | 312 | 9.7 | 11.3 | 0.00 | 0.00 | 0.00 | 37 | 999.0 |
| 20260504033503 | 14 | 312 | 9.7 | 12.9 | 0.00 | 0.00 | 0.00 | 37 | 999.0 |
| 20260504033103 | 15 | 313 | 9.7 | 12.9 | 0.00 | 0.00 | 0.00 | 37 | 999.0 |
| 20260504033004 | 15 | 313 | 9.7 | 12.9 | 0.00 | 0.00 | 0.00 | 37 | 999.0 |
| 20260504032803 | 15 | 314 | 9.7 | 12.9 | 0.00 | 0.00 | 0.00 | 37 | 999.0 |
| 20260504032704 | 15 | 315 | 11.3 | 14.5 | 0.00 | 0.00 | 0.00 | 36 | 999.0 |
| 20260504032602 | 15 | 315 | 11.3 | 14.5 | 0.00 | 0.00 | 0.00 | 36 | 999.0 |
| 20260504032502 | 15 | 315 | 11.3 | 14.5 | 0.00 | 0.00 | 0.00 | 36 | 999.0 |
| 20260504032403 | 15 | 316 | 9.7 | 14.5 | 0.00 | 0.00 | 0.00 | 36 | 999.0 |
| 20260504032304 | 15 | 317 | 9.7 | 14.5 | 0.00 | 0.00 | 0.00 | 36 | 999.0 |
| 20260504031903 | 15 | 317 | 12.9 | 14.5 | 0.00 | 0.00 | 0.00 | 36 | 999.0 |
| 20260504031803 | 15 | 316 | 12.9 | 16.1 | 0.00 | 0.00 | 0.00 | 36 | 999.0 |
| 20260504031703 | 15 | 316 | 12.9 | 16.1 | 0.00 | 0.00 | 0.00 | 36 | 999.0 |
| 20260504031503 | 15 | 316 | 12.9 | 16.1 | 0.00 | 0.00 | 0.00 | 36 | 999.0 |
| 20260504031303 | 16 | 315 | 12.9 | 16.1 | 0.00 | 0.00 | 0.00 | 36 | 999.0 |
| 20260504031203 | 16 | 315 | 11.3 | 16.1 | 0.00 | 0.00 | 0.00 | 36 | 999.0 |
| 20260504031103 | 16 | 315 | 11.3 | 16.1 | 0.00 | 0.00 | 0.00 | 36 | 999.0 |
| 20260504031003 | 16 | 316 | 12.9 | 16.1 | 0.00 | 0.00 | 0.00 | 36 | 999.0 |
| 20260504030903 | 16 | 316 | 14.5 | 16.1 | 0.00 | 0.00 | 0.00 | 36 | 999.0 |
| 20260504030803 | 16 | 316 | 14.5 | 16.1 | 0.00 | 0.00 | 0.00 | 36 | 999.0 |
| 20260504030703 | 16 | 317 | 14.5 | 16.1 | 0.00 | 0.00 | 0.00 | 36 | 999.0 |
| 20260504030603 | 16 | 317 | 14.5 | 16.1 | 0.00 | 0.00 | 0.00 | 36 | 999.0 |
| 20260504030503 | 16 | 316 | 14.5 | 16.1 | 0.00 | 0.00 | 0.00 | 36 | 999.0 |
| 20260504030403 | 16 | 316 | 14.5 | 16.1 | 0.00 | 0.00 | 0.00 | 34 | 999.0 |
| 20260504030303 | 16 | 316 | 12.9 | 16.1 | 0.00 | 0.00 | 0.00 | 34 | 999.0 |
| 20260504030202 | 16 | 315 | 12.9 | 16.1 | 0.00 | 0.00 | 0.00 | 34 | 999.0 |
| 20260504030004 | 16 | 315 | 11.3 | 17.7 | 0.00 | 0.00 | 0.00 | 34 | 999.0 |
| 20260504025903 | 16 | 314 | 12.9 | 19.3 | 0.00 | 0.00 | 0.00 | 34 | 999.0 |
| 20260504025803 | 16 | 316 | 12.9 | 20.9 | 0.00 | 0.00 | 0.00 | 34 | 999.0 |
| 20260504025704 | 16 | 315 | 12.9 | 20.9 | 0.00 | 0.00 | 0.00 | 34 | 999.0 |
| 20260504025603 | 16 | 315 | 12.9 | 20.9 | 0.00 | 0.00 | 0.00 | 34 | 999.0 |
| 20260504025503 | 16 | 316 | 14.5 | 20.9 | 0.00 | 0.00 | 0.00 | 34 | 999.0 |
| 20260504025403 | 16 | 316 | 14.5 | 20.9 | 0.00 | 0.00 | 0.00 | 34 | 999.0 |
| 20260504025203 | 16 | 317 | 16.1 | 20.9 | 0.00 | 0.00 | 0.00 | 34 | 999.0 |
| 20260504025103 | 16 | 315 | 14.5 | 20.9 | 0.00 | 0.00 | 0.00 | 34 | 999.0 |
| 20260504025003 | 17 | 315 | 16.1 | 20.9 | 0.00 | 0.00 | 0.00 | 34 | 999.0 |
| 20260504024904 | 17 | 317 | 16.1 | 20.9 | 0.00 | 0.00 | 0.00 | 34 | 999.0 |
| 20260504024803 | 17 | 315 | 17.7 | 19.3 | 0.00 | 0.00 | 0.00 | 34 | 999.0 |
| 20260504024703 | 17 | 316 | 17.7 | 19.3 | 0.00 | 0.00 | 0.00 | 34 | 999.0 |
| 20260504024603 | 17 | 314 | 16.1 | 17.7 | 0.00 | 0.00 | 0.00 | 34 | 999.0 |
| 20260504024502 | 17 | 314 | 14.5 | 17.7 | 0.00 | 0.00 | 0.00 | 34 | 999.0 |
| 20260504024403 | 17 | 314 | 14.5 | 17.7 | 0.00 | 0.00 | 0.00 | 34 | 999.0 |
| 20260504024103 | 17 | 314 | 12.9 | 16.1 | 0.00 | 0.00 | 0.00 | 34 | 999.0 |
| 20260504024003 | 17 | 314 | 12.9 | 16.1 | 0.00 | 0.00 | 0.00 | 34 | 999.0 |
| 20260504023903 | 17 | 312 | 14.5 | 16.1 | 0.00 | 0.00 | 0.00 | 33 | 999.0 |
| 20260504023803 | 17 | 312 | 14.5 | 19.3 | 0.00 | 0.00 | 0.00 | 33 | 999.0 |
| 20260504023706 | 17 | 310 | 14.5 | 19.3 | 0.00 | 0.00 | 0.00 | 33 | 999.0 |
| 20260504023603 | 17 | 311 | 14.5 | 19.3 | 0.00 | 0.00 | 0.00 | 33 | 999.0 |
| 20260504023503 | 17 | 311 | 14.5 | 19.3 | 0.00 | 0.00 | 0.00 | 33 | 999.0 |
| 20260504023402 | 17 | 309 | 12.9 | 19.3 | 0.00 | 0.00 | 0.00 | 33 | 999.0 |
| 20260504023303 | 17 | 309 | 11.3 | 19.3 | 0.00 | 0.00 | 0.00 | 33 | 999.0 |
| 20260504023203 | 17 | 309 | 11.3 | 19.3 | 0.00 | 0.00 | 0.00 | 33 | 999.0 |
| 20260504023103 | 17 | 310 | 12.9 | 19.3 | 0.00 | 0.00 | 0.00 | 33 | 999.0 |
| 20260504023004 | 17 | 310 | 9.7 | 19.3 | 0.00 | 0.00 | 0.00 | 33 | 999.0 |
| 20260504022804 | 17 | 310 | 8.0 | 14.5 | 0.00 | 0.00 | 0.00 | 33 | 999.0 |
| 20260504022703 | 17 | 311 | 9.7 | 14.5 | 0.00 | 0.00 | 0.00 | 33 | 999.0 |
| 20260504022602 | 17 | 310 | 8.0 | 12.9 | 0.00 | 0.00 | 0.00 | 33 | 999.0 |
| 20260504022503 | 17 | 310 | 8.0 | 12.9 | 0.00 | 0.00 | 0.00 | 33 | 999.0 |
| 20260504022304 | 17 | 310 | 6.4 | 16.1 | 0.00 | 0.00 | 0.00 | 32 | 999.0 |
| 20260504022203 | 17 | 310 | 6.4 | 16.1 | 0.00 | 0.00 | 0.00 | 32 | 999.0 |
| 20260504022103 | 18 | 310 | 8.0 | 16.1 | 0.00 | 0.00 | 0.00 | 32 | 999.0 |
| 20260504022003 | 18 | 311 | 8.0 | 16.1 | 0.00 | 0.00 | 0.00 | 32 | 999.0 |
| 20260504021903 | 18 | 311 | 9.7 | 16.1 | 0.00 | 0.00 | 0.00 | 32 | 999.0 |
| 20260504021803 | 18 | 311 | 9.7 | 16.1 | 0.00 | 0.00 | 0.00 | 32 | 999.0 |
| 20260504021703 | 18 | 311 | 9.7 | 16.1 | 0.00 | 0.00 | 0.00 | 32 | 999.0 |
| 20260504021603 | 18 | 312 | 11.3 | 16.1 | 0.00 | 0.00 | 0.00 | 32 | 999.0 |
| 20260504021503 | 18 | 312 | 11.3 | 16.1 | 0.00 | 0.00 | 0.00 | 32 | 999.0 |
| 20260504021403 | 18 | 315 | 14.5 | 16.1 | 0.00 | 0.00 | 0.00 | 32 | 999.0 |
| 20260504021303 | 18 | 315 | 11.3 | 14.5 | 0.00 | 0.00 | 0.00 | 32 | 999.0 |
| 20260504021203 | 18 | 314 | 11.3 | 14.5 | 0.00 | 0.00 | 0.00 | 32 | 999.0 |
| 20260504021103 | 18 | 314 | 9.7 | 14.5 | 0.00 | 0.00 | 0.00 | 32 | 999.0 |
| 20260504021003 | 18 | 314 | 12.9 | 14.5 | 0.00 | 0.00 | 0.00 | 32 | 999.0 |
| 20260504020903 | 18 | 314 | 11.3 | 14.5 | 0.00 | 0.00 | 0.00 | 32 | 999.0 |
| 20260504020703 | 18 | 315 | 11.3 | 14.5 | 0.00 | 0.00 | 0.00 | 32 | 999.0 |
| 20260504020603 | 18 | 315 | 12.9 | 14.5 | 0.00 | 0.00 | 0.00 | 32 | 999.0 |
| 20260504020503 | 19 | 315 | 12.9 | 14.5 | 0.00 | 0.00 | 0.00 | 32 | 999.0 |
| 20260504020404 | 19 | 315 | 12.9 | 14.5 | 0.00 | 0.00 | 0.00 | 32 | 999.0 |
| 20260504020302 | 19 | 314 | 11.3 | 14.5 | 0.00 | 0.00 | 0.00 | 32 | 999.0 |
| 20260504020004 | 19 | 316 | 9.7 | 12.9 | 0.00 | 0.00 | 0.00 | 32 | 999.0 |
| 20260504015803 | 20 | 317 | 9.7 | 12.9 | 0.00 | 0.00 | 0.00 | 31 | 999.0 |
| 20260504015503 | 20 | 315 | 8.0 | 12.9 | 0.00 | 0.00 | 0.00 | 31 | 999.0 |
| 20260504015403 | 20 | 314 | 6.4 | 12.9 | 0.00 | 0.00 | 0.00 | 31 | 999.0 |
| 20260504015304 | 20 | 313 | 9.7 | 12.9 | 0.00 | 0.00 | 0.00 | 31 | 999.0 |
| 20260504014803 | 20 | 310 | 9.7 | 12.9 | 0.00 | 0.00 | 0.00 | 30 | 999.0 |
| 20260504014703 | 20 | 310 | 6.4 | 14.5 | 0.00 | 0.00 | 0.00 | 30 | 999.0 |
| 20260504014603 | 20 | 309 | 6.4 | 14.5 | 0.00 | 0.00 | 0.00 | 30 | 999.0 |
| 20260504014503 | 21 | 310 | 9.7 | 16.1 | 0.00 | 0.00 | 0.00 | 30 | 999.0 |
| 20260504014403 | 21 | 311 | 11.3 | 19.3 | 0.00 | 0.00 | 0.00 | 30 | 999.0 |
| 20260504014303 | 21 | 312 | 9.7 | 19.3 | 0.00 | 0.00 | 0.00 | 30 | 999.0 |
| 20260504014203 | 21 | 312 | 9.7 | 19.3 | 0.00 | 0.00 | 0.00 | 30 | 999.0 |
| 20260504014104 | 21 | 312 | 8.0 | 19.3 | 0.00 | 0.00 | 0.00 | 30 | 999.0 |
| 20260504014004 | 21 | 312 | 11.3 | 19.3 | 0.00 | 0.00 | 0.00 | 30 | 999.0 |
| 20260504013903 | 21 | 312 | 11.3 | 19.3 | 0.00 | 0.00 | 0.00 | 30 | 999.0 |
| 20260504013803 | 21 | 312 | 12.9 | 19.3 | 0.00 | 0.00 | 0.00 | 30 | 999.0 |
| 20260504013703 | 21 | 311 | 9.7 | 19.3 | 0.00 | 0.00 | 0.00 | 29 | 999.0 |
| 20260504013602 | 21 | 311 | 12.9 | 19.3 | 0.00 | 0.00 | 0.00 | 29 | 999.0 |
| 20260504013503 | 21 | 311 | 14.5 | 19.3 | 0.00 | 0.00 | 0.00 | 29 | 999.0 |
| 20260504013403 | 21 | 307 | 11.3 | 14.5 | 0.00 | 0.00 | 0.00 | 29 | 999.0 |
| 20260504013303 | 21 | 304 | 9.7 | 12.9 | 0.00 | 0.00 | 0.00 | 29 | 999.0 |
| 20260504013203 | 21 | 305 | 8.0 | 12.9 | 0.00 | 0.00 | 0.00 | 29 | 999.0 |
| 20260504013103 | 21 | 305 | 6.4 | 12.9 | 0.00 | 0.00 | 0.00 | 29 | 999.0 |
| 20260504012903 | 22 | 304 | 6.4 | 12.9 | 0.00 | 0.00 | 0.00 | 27 | 999.0 |
| 20260504012803 | 22 | 304 | 6.4 | 12.9 | 0.00 | 0.00 | 0.00 | 27 | 999.0 |
| 20260504012602 | 22 | 306 | 8.0 | 12.9 | 0.00 | 0.00 | 0.00 | 26 | 999.0 |
| 20260504012403 | 22 | 304 | 9.7 | 14.5 | 0.00 | 0.00 | 0.00 | 26 | 1000.1 |
| 20260504012304 | 22 | 305 | 8.0 | 14.5 | 0.00 | 0.00 | 0.00 | 26 | 1000.1 |
| 20260504012203 | 22 | 304 | 11.3 | 14.5 | 0.00 | 0.00 | 0.00 | 26 | 1000.1 |
| 20260504012102 | 22 | 302 | 11.3 | 14.5 | 0.00 | 0.00 | 0.00 | 26 | 1000.1 |
| 20260504012004 | 22 | 300 | 9.7 | 14.5 | 0.00 | 0.00 | 0.00 | 26 | 1000.1 |
| 20260504011803 | 22 | 298 | 9.7 | 14.5 | 0.00 | 0.00 | 0.00 | 26 | 1000.1 |
| 20260504011703 | 22 | 299 | 9.7 | 14.5 | 0.00 | 0.00 | 0.00 | 26 | 1000.1 |
| 20260504011603 | 22 | 299 | 11.3 | 14.5 | 0.00 | 0.00 | 0.00 | 26 | 1000.1 |
| 20260504011403 | 22 | 298 | 12.9 | 14.5 | 0.00 | 0.00 | 0.00 | 26 | 1000.1 |
| 20260504011303 | 22 | 297 | 12.9 | 14.5 | 0.00 | 0.00 | 0.00 | 26 | 1000.1 |
| 20260504011203 | 22 | 298 | 9.7 | 14.5 | 0.00 | 0.00 | 0.00 | 25 | 1000.1 |
| 20260504011103 | 23 | 297 | 12.9 | 14.5 | 0.00 | 0.00 | 0.00 | 26 | 1000.1 |
| 20260504011003 | 23 | 297 | 9.7 | 14.5 | 0.00 | 0.00 | 0.00 | 26 | 1000.1 |
| 20260504010803 | 23 | 293 | 9.7 | 16.1 | 0.00 | 0.00 | 0.00 | 25 | 1000.1 |
| 20260504010703 | 23 | 289 | 12.9 | 16.1 | 0.00 | 0.00 | 0.00 | 25 | 1000.1 |
| 20260504010602 | 23 | 287 | 9.7 | 16.1 | 0.00 | 0.00 | 0.00 | 25 | 1000.1 |
| 20260504010503 | 23 | 288 | 9.7 | 16.1 | 0.00 | 0.00 | 0.00 | 25 | 1000.1 |
| 20260504010403 | 23 | 288 | 9.7 | 16.1 | 0.00 | 0.00 | 0.00 | 25 | 1000.1 |
| 20260504010303 | 23 | 289 | 9.7 | 16.1 | 0.00 | 0.00 | 0.00 | 25 | 1000.1 |
| 20260504010203 | 23 | 289 | 6.4 | 16.1 | 0.00 | 0.00 | 0.00 | 25 | 1000.1 |
| 20260504010003 | 23 | 293 | 9.7 | 16.1 | 0.00 | 0.00 | 0.00 | 24 | 1000.1 |
| 20260504005903 | 23 | 297 | 8.0 | 17.7 | 0.00 | 0.00 | 0.00 | 25 | 1000.1 |
| 20260504005803 | 23 | 299 | 8.0 | 17.7 | 0.00 | 0.00 | 0.00 | 25 | 1000.1 |
| 20260504005703 | 23 | 301 | 9.7 | 17.7 | 0.00 | 0.00 | 0.00 | 25 | 1000.1 |
| 20260504005603 | 23 | 301 | 11.3 | 17.7 | 0.00 | 0.00 | 0.00 | 24 | 1000.1 |
| 20260504005503 | 23 | 301 | 8.0 | 17.7 | 0.00 | 0.00 | 0.00 | 24 | 999.0 |
| 20260504005403 | 23 | 302 | 12.9 | 17.7 | 0.00 | 0.00 | 0.00 | 24 | 999.0 |
| 20260504005305 | 23 | 299 | 11.3 | 17.7 | 0.00 | 0.00 | 0.00 | 23 | 999.0 |
| 20260504005203 | 23 | 300 | 11.3 | 17.7 | 0.00 | 0.00 | 0.00 | 24 | 999.0 |
| 20260504005103 | 24 | 301 | 11.3 | 17.7 | 0.00 | 0.00 | 0.00 | 24 | 999.0 |
| 20260504005003 | 24 | 300 | 12.9 | 19.3 | 0.00 | 0.00 | 0.00 | 23 | 999.0 |
| 20260504004903 | 24 | 299 | 12.9 | 19.3 | 0.00 | 0.00 | 0.00 | 24 | 999.0 |
| 20260504004803 | 24 | 299 | 9.7 | 19.3 | 0.00 | 0.00 | 0.00 | 24 | 999.0 |
| 20260504004703 | 24 | 300 | 9.7 | 19.3 | 0.00 | 0.00 | 0.00 | 25 | 999.0 |
| 20260504004603 | 24 | 300 | 8.0 | 19.3 | 0.00 | 0.00 | 0.00 | 23 | 999.0 |
| 20260504004503 | 24 | 301 | 9.7 | 19.3 | 0.00 | 0.00 | 0.00 | 24 | 999.0 |
| 20260504004403 | 24 | 301 | 11.3 | 19.3 | 0.00 | 0.00 | 0.00 | 24 | 999.0 |
| 20260504004304 | 24 | 302 | 9.7 | 19.3 | 0.00 | 0.00 | 0.00 | 24 | 999.0 |
| 20260504004203 | 24 | 303 | 9.7 | 19.3 | 0.00 | 0.00 | 0.00 | 24 | 999.0 |
| 20260504004004 | 24 | 304 | 12.9 | 17.7 | 0.00 | 0.00 | 0.00 | 24 | 999.0 |
| 20260504003903 | 24 | 305 | 12.9 | 17.7 | 0.00 | 0.00 | 0.00 | 24 | 999.0 |
| 20260504003804 | 24 | 306 | 9.7 | 17.7 | 0.00 | 0.00 | 0.00 | 24 | 999.0 |
| 20260504003703 | 24 | 303 | 12.9 | 17.7 | 0.00 | 0.00 | 0.00 | 24 | 999.0 |
| 20260504003603 | 24 | 305 | 11.3 | 17.7 | 0.00 | 0.00 | 0.00 | 23 | 999.0 |
| 20260504003503 | 24 | 307 | 12.9 | 17.7 | 0.00 | 0.00 | 0.00 | 23 | 999.0 |
| 20260504003403 | 24 | 306 | 12.9 | 17.7 | 0.00 | 0.00 | 0.00 | 23 | 999.0 |
| 20260504003303 | 24 | 307 | 11.3 | 16.1 | 0.00 | 0.00 | 0.00 | 24 | 999.0 |
| 20260504003203 | 24 | 306 | 9.7 | 16.1 | 0.00 | 0.00 | 0.00 | 24 | 999.0 |
| 20260504003103 | 24 | 303 | 12.9 | 16.1 | 0.00 | 0.00 | 0.00 | 24 | 999.0 |
| 20260504003004 | 24 | 302 | 14.5 | 16.1 | 0.00 | 0.00 | 0.00 | 24 | 999.0 |
| 20260504002903 | 24 | 300 | 14.5 | 17.7 | 0.00 | 0.00 | 0.00 | 23 | 999.0 |
| 20260504002803 | 25 | 299 | 12.9 | 17.7 | 0.00 | 0.00 | 0.00 | 24 | 999.0 |
| 20260504002703 | 25 | 300 | 9.7 | 19.3 | 0.00 | 0.00 | 0.00 | 24 | 999.0 |
| 20260504002603 | 25 | 295 | 11.3 | 19.3 | 0.00 | 0.00 | 0.00 | 23 | 999.0 |
| 20260504002503 | 25 | 295 | 9.7 | 19.3 | 0.00 | 0.00 | 0.00 | 24 | 999.0 |
| 20260504002403 | 25 | 295 | 9.7 | 19.3 | 0.00 | 0.00 | 0.00 | 23 | 999.0 |
| 20260504002304 | 25 | 293 | 6.4 | 19.3 | 0.00 | 0.00 | 0.00 | 23 | 999.0 |
| 20260504002203 | 25 | 293 | 12.9 | 19.3 | 0.00 | 0.00 | 0.00 | 23 | 999.0 |
| 20260504002103 | 25 | 295 | 14.5 | 19.3 | 0.00 | 0.00 | 0.00 | 24 | 999.0 |
| 20260504001903 | 25 | 295 | 16.1 | 19.3 | 0.00 | 0.00 | 0.00 | 24 | 999.0 |
| 20260504001703 | 25 | 289 | 12.9 | 19.3 | 0.00 | 0.00 | 0.00 | 23 | 999.0 |
| 20260504001503 | 25 | 285 | 8.0 | 19.3 | 0.00 | 0.00 | 0.00 | 24 | 999.0 |
| 20260504001403 | 25 | 281 | 8.0 | 19.3 | 0.00 | 0.00 | 0.00 | 25 | 999.0 |
| 20260504001303 | 25 | 286 | 11.3 | 19.3 | 0.00 | 0.00 | 0.00 | 24 | 999.0 |
| 20260504001203 | 25 | 288 | 14.5 | 22.5 | 0.00 | 0.00 | 0.00 | 24 | 999.0 |
| 20260504001103 | 25 | 288 | 9.7 | 22.5 | 0.00 | 0.00 | 0.00 | 24 | 999.0 |
| 20260504001003 | 25 | 292 | 4.8 | 22.5 | 0.00 | 0.00 | 0.00 | 24 | 999.0 |
| 20260504000903 | 25 | 292 | 8.0 | 22.5 | 0.00 | 0.00 | 0.00 | 25 | 999.0 |
| 20260504000803 | 25 | 292 | 9.7 | 22.5 | 0.00 | 0.00 | 0.00 | 24 | 999.0 |
| 20260504000703 | 25 | 291 | 11.3 | 22.5 | 0.00 | 0.00 | 0.00 | 23 | 999.0 |
| 20260504000603 | 25 | 292 | 14.5 | 22.5 | 0.00 | 0.00 | 0.00 | 24 | 999.0 |
| 20260504000503 | 24 | 294 | 9.7 | 22.5 | 0.00 | 0.00 | 0.00 | 25 | 999.0 |
| 20260504000402 | 24 | 293 | 11.3 | 22.5 | 0.00 | 0.00 | 0.00 | 24 | 999.0 |
| 20260504000303 | 24 | 294 | 14.5 | 27.4 | 0.00 | 0.00 | 0.00 | 25 | 999.0 |
| 20260504000204 | 24 | 293 | 16.1 | 27.4 | 0.00 | 0.00 | 0.00 | 24 | 999.0 |
| 20260504000003 | 24 | 290 | 16.1 | 27.4 | 0.00 | 0.00 | 0.00 | 23 | 999.0 |
| 20260503235903 | 24 | 286 | 16.1 | 27.4 | 0.00 | 0.00 | 0.00 | 25 | 999.0 |
| 20260503235803 | 25 | 287 | 14.5 | 27.4 | 0.00 | 0.00 | 0.00 | 25 | 999.0 |
| 20260503235703 | 25 | 285 | 14.5 | 30.6 | 0.00 | 0.00 | 0.00 | 25 | 999.0 |
| 20260503235603 | 25 | 286 | 14.5 | 30.6 | 0.00 | 0.00 | 0.00 | 25 | 999.0 |
| 20260503235504 | 25 | 287 | 16.1 | 30.6 | 0.00 | 0.00 | 0.00 | 25 | 1000.1 |
| 20260503235403 | 25 | 291 | 19.3 | 30.6 | 0.00 | 0.00 | 0.00 | 25 | 1000.1 |
| 20260503235304 | 25 | 289 | 14.5 | 30.6 | 0.00 | 0.00 | 0.00 | 25 | 1000.1 |
| 20260503235203 | 25 | 286 | 14.5 | 30.6 | 0.00 | 0.00 | 0.00 | 25 | 1000.1 |
| 20260503235003 | 25 | 290 | 12.9 | 30.6 | 0.00 | 0.00 | 0.00 | 27 | 1000.1 |
| 20260503234903 | 25 | 293 | 19.3 | 30.6 | 0.00 | 0.00 | 0.00 | 26 | 1000.1 |
| 20260503234803 | 25 | 294 | 19.3 | 30.6 | 0.00 | 0.00 | 0.00 | 25 | 1000.1 |
| 20260503234603 | 25 | 299 | 11.3 | 27.4 | 0.00 | 0.00 | 0.00 | 26 | 1000.1 |
| 20260503234503 | 25 | 297 | 9.7 | 27.4 | 0.00 | 0.00 | 0.00 | 26 | 1000.1 |
| 20260503234404 | 25 | 295 | 9.7 | 27.4 | 0.00 | 0.00 | 0.00 | 25 | 1000.1 |
| 20260503234303 | 24 | 294 | 16.1 | 27.4 | 0.00 | 0.00 | 0.00 | 25 | 1000.1 |
| 20260503234203 | 24 | 296 | 19.3 | 27.4 | 0.00 | 0.00 | 0.00 | 26 | 1000.1 |
| 20260503234103 | 24 | 294 | 14.5 | 27.4 | 0.00 | 0.00 | 0.00 | 25 | 1000.1 |
| 20260503234004 | 24 | 289 | 11.3 | 27.4 | 0.00 | 0.00 | 0.00 | 26 | 1000.1 |
| 20260503233903 | 24 | 290 | 16.1 | 27.4 | 0.00 | 0.00 | 0.00 | 26 | 1000.1 |
| 20260503233803 | 24 | 293 | 19.3 | 27.4 | 0.00 | 0.00 | 0.00 | 26 | 1000.1 |
| 20260503233703 | 25 | 289 | 16.1 | 20.9 | 0.00 | 0.00 | 0.00 | 27 | 1000.1 |
| 20260503233603 | 25 | 291 | 12.9 | 20.9 | 0.00 | 0.00 | 0.00 | 27 | 1000.1 |
| 20260503233503 | 25 | 296 | 9.7 | 17.7 | 0.00 | 0.00 | 0.00 | 27 | 1000.1 |
| 20260503233403 | 25 | 302 | 12.9 | 19.3 | 0.00 | 0.00 | 0.00 | 27 | 1000.1 |
| 20260503233303 | 25 | 305 | 9.7 | 19.3 | 0.00 | 0.00 | 0.00 | 29 | 1000.1 |
| 20260503233202 | 25 | 305 | 14.5 | 19.3 | 0.00 | 0.00 | 0.00 | 29 | 1000.1 |
| 20260503233103 | 25 | 309 | 9.7 | 22.5 | 0.00 | 0.00 | 0.00 | 27 | 1000.1 |
| 20260503233004 | 25 | 311 | 11.3 | 22.5 | 0.00 | 0.00 | 0.00 | 29 | 1000.1 |
| 20260503232903 | 25 | 311 | 8.0 | 22.5 | 0.00 | 0.00 | 0.00 | 29 | 1000.1 |
| 20260503232803 | 24 | 310 | 8.0 | 22.5 | 0.00 | 0.00 | 0.00 | 29 | 1000.1 |
| 20260503232703 | 24 | 311 | 14.5 | 22.5 | 0.00 | 0.00 | 0.00 | 29 | 1000.1 |
| 20260503232403 | 24 | 307 | 11.3 | 22.5 | 0.00 | 0.00 | 0.00 | 29 | 1000.1 |
| 20260503232305 | 24 | 305 | 9.7 | 22.5 | 0.00 | 0.00 | 0.00 | 29 | 1000.1 |
| 20260503232203 | 24 | 306 | 14.5 | 22.5 | 0.00 | 0.00 | 0.00 | 29 | 1000.1 |
| 20260503232104 | 24 | 303 | 11.3 | 20.9 | 0.00 | 0.00 | 0.00 | 29 | 1000.1 |
| 20260503232004 | 24 | 296 | 11.3 | 20.9 | 0.00 | 0.00 | 0.00 | 29 | 1000.1 |
| 20260503231903 | 24 | 287 | 11.3 | 29.0 | 0.00 | 0.00 | 0.00 | 29 | 1000.1 |
| 20260503231803 | 24 | 282 | 12.9 | 29.0 | 0.00 | 0.00 | 0.00 | 27 | 1000.1 |
| 20260503231702 | 24 | 280 | 16.1 | 29.0 | 0.00 | 0.00 | 0.00 | 29 | 1000.1 |
| 20260503231603 | 23 | 278 | 12.9 | 29.0 | 0.00 | 0.00 | 0.00 | 29 | 1000.1 |
| 20260503231503 | 23 | 281 | 12.9 | 29.0 | 0.00 | 0.00 | 0.00 | 29 | 1000.1 |
| 20260503231403 | 23 | 279 | 8.0 | 29.0 | 0.00 | 0.00 | 0.00 | 29 | 1000.1 |
| 20260503231303 | 23 | 280 | 8.0 | 29.0 | 0.00 | 0.00 | 0.00 | 29 | 1000.1 |
| 20260503231203 | 24 | 280 | 12.9 | 29.0 | 0.00 | 0.00 | 0.00 | 27 | 1000.1 |
| 20260503231103 | 24 | 284 | 12.9 | 29.0 | 0.00 | 0.00 | 0.00 | 29 | 1000.1 |
| 20260503231003 | 24 | 285 | 14.5 | 29.0 | 0.00 | 0.00 | 0.00 | 27 | 1000.1 |
| 20260503230903 | 23 | 295 | 11.3 | 20.9 | 0.00 | 0.00 | 0.00 | 29 | 1000.1 |
| 20260503230803 | 23 | 297 | 14.5 | 20.9 | 0.00 | 0.00 | 0.00 | 27 | 1000.1 |
| 20260503230703 | 23 | 298 | 14.5 | 20.9 | 0.00 | 0.00 | 0.00 | 27 | 1000.1 |
| 20260503230603 | 23 | 298 | 14.5 | 20.9 | 0.00 | 0.00 | 0.00 | 27 | 1000.1 |
| 20260503230503 | 24 | 299 | 16.1 | 20.9 | 0.00 | 0.00 | 0.00 | 29 | 1000.1 |
| 20260503230402 | 24 | 299 | 14.5 | 20.9 | 0.00 | 0.00 | 0.00 | 29 | 1000.1 |
| 20260503230303 | 25 | 300 | 9.7 | 20.9 | 0.00 | 0.00 | 0.00 | 29 | 1000.1 |
| 20260503230203 | 25 | 300 | 12.9 | 20.9 | 0.00 | 0.00 | 0.00 | 27 | 1000.1 |
| 20260503230103 | 25 | 297 | 9.7 | 20.9 | 0.00 | 0.00 | 0.00 | 27 | 1000.1 |
| 20260503230003 | 25 | 298 | 11.3 | 20.9 | 0.00 | 0.00 | 0.00 | 27 | 1000.1 |
| 20260503225903 | 25 | 298 | 11.3 | 20.9 | 0.00 | 0.00 | 0.00 | 27 | 1000.1 |
| 20260503225803 | 25 | 300 | 11.3 | 20.9 | 0.00 | 0.00 | 0.00 | 26 | 1000.1 |
| 20260503225703 | 25 | 301 | 9.7 | 20.9 | 0.00 | 0.00 | 0.00 | 27 | 1000.1 |
| 20260503225603 | 25 | 304 | 14.5 | 20.9 | 0.00 | 0.00 | 0.00 | 27 | 1000.1 |
| 20260503225503 | 24 | 301 | 12.9 | 20.9 | 0.00 | 0.00 | 0.00 | 27 | 1001.2 |
| 20260503225403 | 24 | 297 | 12.9 | 22.5 | 0.00 | 0.00 | 0.00 | 29 | 1001.2 |
| 20260503225304 | 24 | 289 | 14.5 | 32.2 | 0.00 | 0.00 | 0.00 | 29 | 1001.2 |
| 20260503225203 | 24 | 286 | 12.9 | 32.2 | 0.00 | 0.00 | 0.00 | 29 | 1001.2 |
| 20260503225103 | 24 | 281 | 14.5 | 32.2 | 0.00 | 0.00 | 0.00 | 29 | 1001.2 |
| 20260503225003 | 25 | 276 | 14.5 | 32.2 | 0.00 | 0.00 | 0.00 | 27 | 1001.2 |
| 20260503224903 | 25 | 269 | 14.5 | 32.2 | 0.00 | 0.00 | 0.00 | 27 | 1001.2 |
| 20260503224803 | 25 | 267 | 11.3 | 32.2 | 0.00 | 0.00 | 0.00 | 27 | 1001.2 |
| 20260503224603 | 25 | 259 | 11.3 | 32.2 | 0.00 | 0.00 | 0.00 | 27 | 1001.2 |
| 20260503224503 | 25 | 260 | 19.3 | 32.2 | 0.00 | 0.00 | 0.00 | 27 | 1001.2 |
| 20260503224303 | 25 | 270 | 19.3 | 32.2 | 0.00 | 0.00 | 0.00 | 26 | 1001.2 |
| 20260503224203 | 25 | 277 | 19.3 | 30.6 | 0.00 | 0.00 | 0.00 | 26 | 1001.2 |
| 20260503224103 | 25 | 282 | 27.4 | 30.6 | 0.00 | 0.00 | 0.00 | 25 | 1001.2 |
| 20260503224004 | 25 | 289 | 12.9 | 30.6 | 0.00 | 0.00 | 0.00 | 26 | 1001.2 |
| 20260503223903 | 25 | 292 | 16.1 | 30.6 | 0.00 | 0.00 | 0.00 | 27 | 1001.2 |
| 20260503223803 | 25 | 293 | 12.9 | 30.6 | 0.00 | 0.00 | 0.00 | 26 | 1001.2 |
| 20260503223703 | 25 | 296 | 14.5 | 30.6 | 0.00 | 0.00 | 0.00 | 26 | 1001.2 |
| 20260503223604 | 25 | 298 | 16.1 | 30.6 | 0.00 | 0.00 | 0.00 | 25 | 1001.2 |
| 20260503223503 | 25 | 301 | 20.9 | 30.6 | 0.00 | 0.00 | 0.00 | 25 | 1001.2 |
| 20260503223403 | 25 | 298 | 22.5 | 30.6 | 0.00 | 0.00 | 0.00 | 26 | 1001.2 |
| 20260503223302 | 25 | 299 | 20.9 | 30.6 | 0.00 | 0.00 | 0.00 | 29 | 1001.2 |
| 20260503223203 | 25 | 300 | 12.9 | 22.5 | 0.00 | 0.00 | 0.00 | 29 | 1001.2 |
| 20260503223003 | 25 | 299 | 12.9 | 22.5 | 0.00 | 0.00 | 0.00 | 27 | 1001.2 |
| 20260503222803 | 25 | 300 | 14.5 | 22.5 | 0.00 | 0.00 | 0.00 | 26 | 1001.2 |
| 20260503222703 | 25 | 299 | 14.5 | 22.5 | 0.00 | 0.00 | 0.00 | 27 | 1001.2 |
| 20260503222602 | 25 | 299 | 9.7 | 22.5 | 0.00 | 0.00 | 0.00 | 27 | 1001.2 |
| 20260503222503 | 25 | 300 | 14.5 | 22.5 | 0.00 | 0.00 | 0.00 | 27 | 1001.2 |
| 20260503222403 | 25 | 304 | 16.1 | 22.5 | 0.00 | 0.00 | 0.00 | 27 | 1001.2 |
| 20260503222304 | 25 | 301 | 12.9 | 22.5 | 0.00 | 0.00 | 0.00 | 27 | 1001.2 |
| 20260503222202 | 25 | 300 | 12.9 | 22.5 | 0.00 | 0.00 | 0.00 | 27 | 1001.2 |
| 20260503221903 | 25 | 297 | 12.9 | 22.5 | 0.00 | 0.00 | 0.00 | 29 | 1001.2 |
| 20260503221803 | 25 | 288 | 14.5 | 22.5 | 0.00 | 0.00 | 0.00 | 27 | 1001.2 |
| 20260503221703 | 25 | 281 | 12.9 | 27.4 | 0.00 | 0.00 | 0.00 | 27 | 1001.2 |
| 20260503221603 | 25 | 277 | 16.1 | 27.4 | 0.00 | 0.00 | 0.00 | 27 | 1001.2 |
| 20260503221502 | 25 | 271 | 8.0 | 30.6 | 0.00 | 0.00 | 0.00 | 29 | 1001.2 |
| 20260503221402 | 25 | 267 | 8.0 | 30.6 | 0.00 | 0.00 | 0.00 | 27 | 1001.2 |
| 20260503221303 | 25 | 269 | 8.0 | 30.6 | 0.00 | 0.00 | 0.00 | 27 | 1001.2 |
| 20260503221203 | 25 | 268 | 12.9 | 30.6 | 0.00 | 0.00 | 0.00 | 26 | 1001.2 |
| 20260503221103 | 25 | 265 | 14.5 | 30.6 | 0.00 | 0.00 | 0.00 | 27 | 1001.2 |
| 20260503221003 | 25 | 263 | 17.7 | 30.6 | 0.00 | 0.00 | 0.00 | 27 | 1000.1 |
| 20260503220903 | 25 | 261 | 20.9 | 30.6 | 0.00 | 0.00 | 0.00 | 27 | 1000.1 |
| 20260503220803 | 25 | 263 | 20.9 | 30.6 | 0.00 | 0.00 | 0.00 | 29 | 1000.1 |
| 20260503220702 | 25 | 264 | 22.5 | 40.2 | 0.00 | 0.00 | 0.00 | 29 | 1000.1 |
| 20260503220603 | 25 | 266 | 14.5 | 40.2 | 0.00 | 0.00 | 0.00 | 29 | 1000.1 |
| 20260503220503 | 25 | 270 | 19.3 | 40.2 | 0.00 | 0.00 | 0.00 | 29 | 1000.1 |
| 20260503220403 | 25 | 274 | 9.7 | 40.2 | 0.00 | 0.00 | 0.00 | 29 | 1000.1 |
| 20260503220203 | 24 | 270 | 11.3 | 40.2 | 0.00 | 0.00 | 0.00 | 30 | 1000.1 |
| 20260503220003 | 24 | 277 | 22.5 | 40.2 | 0.00 | 0.00 | 0.00 | 27 | 1000.1 |
| 20260503215903 | 24 | 282 | 27.4 | 40.2 | 0.00 | 0.00 | 0.00 | 27 | 1000.1 |
| 20260503215803 | 23 | 283 | 17.7 | 40.2 | 0.00 | 0.00 | 0.00 | 27 | 1000.1 |
| 20260503215602 | 24 | 286 | 14.5 | 30.6 | 0.00 | 0.00 | 0.00 | 29 | 1000.1 |
| 20260503215503 | 24 | 285 | 9.7 | 30.6 | 0.00 | 0.00 | 0.00 | 29 | 1001.2 |
| 20260503215403 | 24 | 281 | 6.4 | 30.6 | 0.00 | 0.00 | 0.00 | 29 | 1001.2 |
| 20260503215304 | 24 | 277 | 14.5 | 30.6 | 0.00 | 0.00 | 0.00 | 27 | 1001.2 |
| 20260503215203 | 24 | 280 | 14.5 | 29.0 | 0.00 | 0.00 | 0.00 | 29 | 1001.2 |
| 20260503215103 | 24 | 275 | 19.3 | 29.0 | 0.00 | 0.00 | 0.00 | 29 | 1001.2 |
| 20260503214903 | 25 | 260 | 22.5 | 37.0 | 0.00 | 0.00 | 0.00 | 29 | 1001.2 |
| 20260503214603 | 25 | 266 | 16.1 | 37.0 | 0.00 | 0.00 | 0.00 | 29 | 1001.2 |
| 20260503214503 | 25 | 265 | 19.3 | 37.0 | 0.00 | 0.00 | 0.00 | 29 | 1001.2 |
| 20260503214403 | 25 | 263 | 16.1 | 37.0 | 0.00 | 0.00 | 0.00 | 29 | 1001.2 |
| 20260503214303 | 25 | 263 | 19.3 | 37.0 | 0.00 | 0.00 | 0.00 | 27 | 1001.2 |
| 20260503214203 | 25 | 262 | 27.4 | 37.0 | 0.00 | 0.00 | 0.00 | 24 | 1001.2 |
| 20260503214103 | 25 | 265 | 30.6 | 37.0 | 0.00 | 0.00 | 0.00 | 25 | 1001.2 |
| 20260503214003 | 25 | 269 | 19.3 | 37.0 | 0.00 | 0.00 | 0.00 | 27 | 1002.3 |
| 20260503213903 | 25 | 273 | 14.5 | 30.6 | 0.00 | 0.00 | 0.00 | 29 | 1002.3 |
| 20260503213803 | 25 | 270 | 16.1 | 30.6 | 0.00 | 0.00 | 0.00 | 27 | 1002.3 |
| 20260503213603 | 25 | 269 | 17.7 | 30.6 | 0.00 | 0.00 | 0.00 | 26 | 1002.3 |
| 20260503213503 | 25 | 270 | 14.5 | 30.6 | 0.00 | 0.00 | 0.00 | 27 | 1002.3 |
| 20260503213403 | 24 | 273 | 19.3 | 30.6 | 0.00 | 0.00 | 0.00 | 27 | 1002.3 |
| 20260503213303 | 24 | 275 | 27.4 | 30.6 | 0.00 | 0.00 | 0.00 | 27 | 1002.3 |
| 20260503213203 | 24 | 280 | 14.5 | 30.6 | 0.00 | 0.00 | 0.00 | 29 | 1002.3 |
| 20260503213102 | 24 | 284 | 9.7 | 27.4 | 0.00 | 0.00 | 0.00 | 27 | 1002.3 |
| 20260503213004 | 24 | 287 | 9.7 | 27.4 | 0.00 | 0.00 | 0.00 | 27 | 1002.3 |
| 20260503212803 | 24 | 291 | 17.7 | 27.4 | 0.00 | 0.00 | 0.00 | 29 | 1002.3 |
| 20260503212703 | 24 | 293 | 20.9 | 27.4 | 0.00 | 0.00 | 0.00 | 27 | 1002.3 |
| 20260503212603 | 24 | 290 | 14.5 | 27.4 | 0.00 | 0.00 | 0.00 | 29 | 1002.3 |
| 20260503212403 | 24 | 289 | 17.7 | 27.4 | 0.00 | 0.00 | 0.00 | 27 | 1002.3 |
| 20260503212203 | 24 | 290 | 20.9 | 27.4 | 0.00 | 0.00 | 0.00 | 27 | 1002.3 |
| 20260503212103 | 24 | 285 | 14.5 | 30.6 | 0.00 | 0.00 | 0.00 | 29 | 1002.3 |
| 20260503212003 | 24 | 278 | 17.7 | 30.6 | 0.00 | 0.00 | 0.00 | 27 | 1002.3 |
| 20260503211903 | 24 | 278 | 14.5 | 30.6 | 0.00 | 0.00 | 0.00 | 30 | 1002.3 |
| 20260503211503 | 23 | 271 | 16.1 | 30.6 | 0.00 | 0.00 | 0.00 | 27 | 1002.3 |
| 20260503211303 | 23 | 265 | 14.5 | 30.6 | 0.00 | 0.00 | 0.00 | 29 | 1002.3 |
| 20260503211202 | 23 | 264 | 20.9 | 30.6 | 0.00 | 0.00 | 0.00 | 30 | 1002.3 |
| 20260503211103 | 23 | 270 | 14.5 | 29.0 | 0.00 | 0.00 | 0.00 | 30 | 1002.3 |
| 20260503211004 | 23 | 274 | 11.3 | 29.0 | 0.00 | 0.00 | 0.00 | 29 | 1002.3 |
| 20260503210903 | 23 | 276 | 9.7 | 29.0 | 0.00 | 0.00 | 0.00 | 29 | 1002.3 |
| 20260503210803 | 23 | 276 | 11.3 | 29.0 | 0.00 | 0.00 | 0.00 | 30 | 1002.3 |
| 20260503210603 | 23 | 269 | 24.1 | 35.4 | 0.00 | 0.00 | 0.00 | 29 | 1002.3 |
| 20260503210503 | 23 | 268 | 17.7 | 35.4 | 0.00 | 0.00 | 0.00 | 27 | 1002.3 |
| 20260503210404 | 23 | 274 | 12.9 | 35.4 | 0.00 | 0.00 | 0.00 | 30 | 1002.3 |
| 20260503210303 | 23 | 270 | 16.1 | 38.6 | 0.00 | 0.00 | 0.00 | 29 | 1002.3 |
| 20260503210203 | 23 | 267 | 14.5 | 38.6 | 0.00 | 0.00 | 0.00 | 30 | 1002.3 |
| 20260503210005 | 23 | 252 | 14.5 | 38.6 | 0.00 | 0.00 | 0.00 | 30 | 1002.3 |
| 20260503205902 | 23 | 249 | 16.1 | 38.6 | 0.00 | 0.00 | 0.00 | 30 | 1002.3 |
| 20260503205703 | 23 | 246 | 30.6 | 38.6 | 0.00 | 0.00 | 0.00 | 27 | 1002.3 |
| 20260503205603 | 23 | 247 | 16.1 | 38.6 | 0.00 | 0.00 | 0.00 | 30 | 1002.3 |
| 20260503205403 | 23 | 248 | 32.2 | 38.6 | 0.00 | 0.00 | 0.00 | 30 | 1002.3 |
| 20260503205304 | 23 | 248 | 30.6 | 37.0 | 0.00 | 0.00 | 0.00 | 31 | 1002.3 |
| 20260503205203 | 23 | 250 | 30.6 | 37.0 | 0.00 | 0.00 | 0.00 | 31 | 1002.3 |
| 20260503205103 | 23 | 258 | 25.7 | 29.0 | 0.00 | 0.00 | 0.00 | 31 | 1002.3 |
| 20260503205004 | 23 | 269 | 14.5 | 30.6 | 0.00 | 0.00 | 0.00 | 30 | 1002.3 |
| 20260503204903 | 23 | 277 | 19.3 | 30.6 | 0.00 | 0.00 | 0.00 | 31 | 1002.3 |
| 20260503204803 | 23 | 279 | 16.1 | 30.6 | 0.00 | 0.00 | 0.00 | 31 | 1002.3 |
| 20260503204703 | 23 | 286 | 11.3 | 30.6 | 0.00 | 0.00 | 0.00 | 31 | 1002.3 |
| 20260503204603 | 23 | 288 | 11.3 | 30.6 | 0.00 | 0.00 | 0.00 | 31 | 1002.3 |
| 20260503204503 | 23 | 281 | 16.1 | 30.6 | 0.00 | 0.00 | 0.00 | 30 | 1002.3 |
| 20260503204403 | 23 | 281 | 11.3 | 37.0 | 0.00 | 0.00 | 0.00 | 30 | 1002.3 |
| 20260503204303 | 23 | 283 | 14.5 | 37.0 | 0.00 | 0.00 | 0.00 | 30 | 1002.3 |
| 20260503204203 | 23 | 278 | 19.3 | 37.0 | 0.00 | 0.00 | 0.00 | 31 | 1002.3 |
| 20260503204102 | 23 | 274 | 22.5 | 37.0 | 0.00 | 0.00 | 0.00 | 31 | 1002.3 |
| 20260503204004 | 23 | 269 | 14.5 | 37.0 | 0.00 | 0.00 | 0.00 | 31 | 1003.4 |
| 20260503203803 | 23 | 269 | 19.3 | 37.0 | 0.00 | 0.00 | 0.00 | 31 | 1003.4 |
| 20260503203703 | 23 | 272 | 8.0 | 37.0 | 0.00 | 0.00 | 0.00 | 31 | 1003.4 |
| 20260503203603 | 23 | 274 | 22.5 | 37.0 | 0.00 | 0.00 | 0.00 | 31 | 1003.4 |
| 20260503203504 | 23 | 279 | 24.1 | 37.0 | 0.00 | 0.00 | 0.00 | 31 | 1003.4 |
| 20260503203403 | 23 | 284 | 12.9 | 27.4 | 0.00 | 0.00 | 0.00 | 31 | 1003.4 |
| 20260503203303 | 23 | 283 | 22.5 | 27.4 | 0.00 | 0.00 | 0.00 | 31 | 1003.4 |
| 20260503203203 | 23 | 292 | 19.3 | 27.4 | 0.00 | 0.00 | 0.00 | 31 | 1003.4 |
| 20260503203103 | 23 | 297 | 14.5 | 32.2 | 0.00 | 0.00 | 0.00 | 31 | 1003.4 |
| 20260503203003 | 23 | 302 | 16.1 | 32.2 | 0.00 | 0.00 | 0.00 | 31 | 1003.4 |
| 20260503202903 | 23 | 303 | 19.3 | 32.2 | 0.00 | 0.00 | 0.00 | 30 | 1003.4 |
| 20260503202803 | 22 | 302 | 19.3 | 32.2 | 0.00 | 0.00 | 0.00 | 27 | 1003.4 |
| 20260503202702 | 23 | 299 | 14.5 | 32.2 | 0.00 | 0.00 | 0.00 | 31 | 1003.4 |
| 20260503202603 | 22 | 294 | 17.7 | 32.2 | 0.00 | 0.00 | 0.00 | 32 | 1003.4 |
| 20260503202503 | 22 | 288 | 12.9 | 32.2 | 0.00 | 0.00 | 0.00 | 32 | 1003.4 |
| 20260503202403 | 22 | 285 | 16.1 | 32.2 | 0.00 | 0.00 | 0.00 | 32 | 1003.4 |
| 20260503202304 | 22 | 283 | 19.3 | 32.2 | 0.00 | 0.00 | 0.00 | 31 | 1003.4 |
| 20260503202203 | 22 | 280 | 20.9 | 32.2 | 0.00 | 0.00 | 0.00 | 32 | 1003.4 |
| 20260503202103 | 22 | 278 | 16.1 | 27.4 | 0.00 | 0.00 | 0.00 | 32 | 1003.4 |
| 20260503202004 | 22 | 275 | 12.9 | 22.5 | 0.00 | 0.00 | 0.00 | 32 | 1003.4 |
| 20260503201902 | 22 | 283 | 11.3 | 27.4 | 0.00 | 0.00 | 0.00 | 32 | 1003.4 |
| 20260503201703 | 22 | 293 | 16.1 | 27.4 | 0.00 | 0.00 | 0.00 | 32 | 1003.4 |
| 20260503201503 | 22 | 304 | 12.9 | 27.4 | 0.00 | 0.00 | 0.00 | 32 | 1003.4 |
| 20260503201403 | 22 | 305 | 11.3 | 27.4 | 0.00 | 0.00 | 0.00 | 32 | 1003.4 |
| 20260503201203 | 22 | 307 | 12.9 | 27.4 | 0.00 | 0.00 | 0.00 | 32 | 1003.4 |
| 20260503201004 | 22 | 297 | 24.1 | 27.4 | 0.00 | 0.00 | 0.00 | 32 | 1003.4 |
| 20260503200903 | 22 | 293 | 19.3 | 27.4 | 0.00 | 0.00 | 0.00 | 32 | 1003.4 |
| 20260503200703 | 22 | 291 | 22.5 | 27.4 | 0.00 | 0.00 | 0.00 | 32 | 1003.4 |
| 20260503200503 | 22 | 284 | 12.9 | 25.7 | 0.00 | 0.00 | 0.00 | 32 | 1003.4 |
| 20260503200403 | 22 | 285 | 14.5 | 25.7 | 0.00 | 0.00 | 0.00 | 32 | 1003.4 |
| 20260503200303 | 22 | 289 | 12.9 | 25.7 | 0.00 | 0.00 | 0.00 | 31 | 1003.4 |
| 20260503200203 | 22 | 286 | 19.3 | 25.7 | 0.00 | 0.00 | 0.00 | 31 | 1003.4 |
| 20260503200004 | 22 | 299 | 9.7 | 22.5 | 0.00 | 0.00 | 0.00 | 32 | 1003.4 |
| 20260503195903 | 22 | 301 | 12.9 | 22.5 | 0.00 | 0.00 | 0.00 | 32 | 1003.4 |
| 20260503195803 | 22 | 302 | 14.5 | 22.5 | 0.00 | 0.00 | 0.00 | 31 | 1003.4 |
| 20260503195703 | 22 | 300 | 14.5 | 22.5 | 0.00 | 0.00 | 0.00 | 33 | 1003.4 |
| 20260503195603 | 22 | 303 | 8.0 | 22.5 | 0.00 | 0.00 | 0.00 | 33 | 1003.4 |
| 20260503195503 | 22 | 304 | 12.9 | 22.5 | 0.00 | 0.00 | 0.00 | 33 | 1002.3 |
| 20260503195203 | 22 | 302 | 16.1 | 27.4 | 0.00 | 0.00 | 0.00 | 33 | 1002.3 |
| 20260503195103 | 22 | 302 | 9.7 | 27.4 | 0.00 | 0.00 | 0.00 | 33 | 1002.3 |
| 20260503195003 | 22 | 298 | 9.7 | 27.4 | 0.00 | 0.00 | 0.00 | 33 | 1002.3 |
| 20260503194903 | 22 | 299 | 12.9 | 27.4 | 0.00 | 0.00 | 0.00 | 32 | 1002.3 |
| 20260503194803 | 22 | 299 | 17.7 | 27.4 | 0.00 | 0.00 | 0.00 | 32 | 1002.3 |
| 20260503194703 | 22 | 302 | 16.1 | 27.4 | 0.00 | 0.00 | 0.00 | 33 | 1002.3 |
| 20260503194602 | 22 | 301 | 22.5 | 27.4 | 0.00 | 0.00 | 0.00 | 33 | 1002.3 |
| 20260503194503 | 22 | 301 | 16.1 | 32.2 | 0.00 | 0.00 | 0.00 | 33 | 1002.3 |
| 20260503194403 | 22 | 300 | 16.1 | 37.0 | 0.00 | 0.00 | 0.00 | 33 | 1002.3 |
| 20260503194303 | 22 | 300 | 20.9 | 37.0 | 0.00 | 0.00 | 0.00 | 33 | 1002.3 |
| 20260503194203 | 22 | 301 | 14.5 | 37.0 | 0.00 | 0.00 | 0.00 | 32 | 1002.3 |
| 20260503194104 | 22 | 302 | 19.3 | 37.0 | 0.00 | 0.00 | 0.00 | 32 | 1002.3 |
| 20260503194004 | 21 | 307 | 19.3 | 37.0 | 0.00 | 0.00 | 0.00 | 33 | 1003.4 |
| 20260503193903 | 22 | 305 | 22.5 | 37.0 | 0.00 | 0.00 | 0.00 | 33 | 1003.4 |
| 20260503193803 | 22 | 305 | 19.3 | 37.0 | 0.00 | 0.00 | 0.00 | 33 | 1003.4 |
| 20260503193603 | 21 | 307 | 29.0 | 37.0 | 0.00 | 0.00 | 0.00 | 33 | 1003.4 |
| 20260503193303 | 21 | 304 | 16.1 | 37.0 | 0.00 | 0.00 | 0.00 | 34 | 1003.4 |
| 20260503193203 | 21 | 304 | 27.4 | 37.0 | 0.00 | 0.00 | 0.00 | 34 | 1003.4 |
| 20260503192903 | 21 | 303 | 25.7 | 29.0 | 0.00 | 0.00 | 0.00 | 34 | 1003.4 |
| 20260503192803 | 21 | 303 | 19.3 | 29.0 | 0.00 | 0.00 | 0.00 | 36 | 1003.4 |
| 20260503192703 | 21 | 299 | 14.5 | 29.0 | 0.00 | 0.00 | 0.00 | 34 | 1003.4 |
| 20260503192603 | 21 | 298 | 14.5 | 29.0 | 0.00 | 0.00 | 0.00 | 34 | 1003.4 |
| 20260503192503 | 21 | 297 | 17.7 | 29.0 | 0.00 | 0.00 | 0.00 | 34 | 1003.4 |
| 20260503192403 | 21 | 298 | 20.9 | 29.0 | 0.00 | 0.00 | 0.00 | 37 | 1003.4 |
| 20260503192305 | 21 | 303 | 22.5 | 29.0 | 0.00 | 0.00 | 0.00 | 37 | 1003.4 |
| 20260503192103 | 21 | 304 | 12.9 | 19.3 | 0.00 | 0.00 | 0.00 | 39 | 1003.4 |
| 20260503192003 | 21 | 301 | 14.5 | 22.5 | 0.00 | 0.00 | 0.00 | 38 | 1003.4 |
| 20260503191803 | 21 | 291 | 9.7 | 22.5 | 0.00 | 0.00 | 0.00 | 39 | 1003.4 |
| 20260503191702 | 21 | 288 | 12.9 | 22.5 | 0.00 | 0.00 | 0.00 | 41 | 1003.4 |
| 20260503191503 | 21 | 287 | 16.1 | 22.5 | 0.00 | 0.00 | 0.00 | 41 | 1003.4 |
| 20260503191303 | 21 | 262 | 14.5 | 22.5 | 0.00 | 0.00 | 0.00 | 42 | 1003.4 |
| 20260503191202 | 21 | 259 | 9.7 | 22.5 | 0.00 | 0.00 | 0.00 | 42 | 1003.4 |
| 20260503191103 | 21 | 262 | 9.7 | 22.5 | 0.00 | 0.00 | 0.00 | 42 | 1003.4 |
| 20260503190903 | 21 | 263 | 6.4 | 22.5 | 0.00 | 0.00 | 0.00 | 42 | 1004.5 |
| 20260503190803 | 21 | 264 | 11.3 | 22.5 | 0.00 | 0.00 | 0.00 | 42 | 1004.5 |
| 20260503190603 | 21 | 266 | 17.7 | 22.5 | 0.00 | 0.00 | 0.00 | 44 | 1004.5 |
| 20260503190503 | 21 | 271 | 19.3 | 22.5 | 0.00 | 0.00 | 0.00 | 44 | 1004.5 |
| 20260503190202 | 21 | 292 | 14.5 | 25.7 | 0.00 | 0.00 | 0.00 | 42 | 1004.5 |
| 20260503190004 | 21 | 293 | 16.1 | 25.7 | 0.00 | 0.00 | 0.00 | 42 | 1004.5 |
| 20260503185803 | 21 | 302 | 14.5 | 29.0 | 0.00 | 0.00 | 0.00 | 41 | 1004.5 |
| 20260503185703 | 20 | 306 | 12.9 | 29.0 | 0.00 | 0.00 | 0.00 | 41 | 1004.5 |
| 20260503185503 | 21 | 304 | 12.9 | 29.0 | 0.00 | 0.00 | 0.00 | 42 | 1004.5 |
| 20260503185403 | 21 | 297 | 17.7 | 29.0 | 0.00 | 0.00 | 0.00 | 41 | 1004.5 |
| 20260503185304 | 21 | 295 | 14.5 | 29.0 | 0.00 | 0.00 | 0.00 | 41 | 1004.5 |
| 20260503185203 | 21 | 288 | 12.9 | 29.0 | 0.00 | 0.00 | 0.00 | 41 | 1004.5 |
| 20260503185103 | 21 | 284 | 19.3 | 29.0 | 0.00 | 0.00 | 0.00 | 40 | 1004.5 |
| 20260503184804 | 20 | 279 | 11.3 | 25.7 | 0.00 | 0.00 | 0.00 | 41 | 1004.5 |
| 20260503184703 | 20 | 278 | 12.9 | 25.7 | 0.00 | 0.00 | 0.00 | 41 | 1004.5 |
| 20260503184603 | 20 | 277 | 11.3 | 25.7 | 0.00 | 0.00 | 0.00 | 41 | 1004.5 |
| 20260503184403 | 20 | 281 | 12.9 | 25.7 | 0.00 | 0.00 | 0.00 | 42 | 1004.5 |
| 20260503184303 | 20 | 283 | 16.1 | 25.7 | 0.00 | 0.00 | 0.00 | 40 | 1004.5 |
| 20260503184202 | 20 | 285 | 19.3 | 25.7 | 0.00 | 0.00 | 0.00 | 41 | 1004.5 |
| 20260503184103 | 20 | 282 | 14.5 | 30.6 | 0.00 | 0.00 | 0.00 | 41 | 1004.5 |
| 20260503184003 | 20 | 277 | 12.9 | 30.6 | 0.00 | 0.00 | 0.00 | 42 | 1005.6 |
| 20260503183803 | 20 | 269 | 16.1 | 30.6 | 0.00 | 0.00 | 0.00 | 42 | 1005.6 |
| 20260503183703 | 20 | 263 | 20.9 | 33.8 | 0.00 | 0.00 | 0.00 | 42 | 1005.6 |
| 20260503183603 | 20 | 259 | 14.5 | 33.8 | 0.00 | 0.00 | 0.00 | 42 | 1005.6 |
| 20260503183504 | 20 | 259 | 14.5 | 33.8 | 0.00 | 0.00 | 0.00 | 42 | 1005.6 |
| 20260503183303 | 20 | 253 | 14.5 | 33.8 | 0.00 | 0.00 | 0.00 | 42 | 1005.6 |
| 20260503183203 | 20 | 249 | 20.9 | 33.8 | 0.00 | 0.00 | 0.00 | 42 | 1005.6 |
| 20260503183103 | 20 | 249 | 20.9 | 33.8 | 0.00 | 0.00 | 0.00 | 42 | 1005.6 |
| 20260503182903 | 20 | 252 | 22.5 | 33.8 | 0.00 | 0.00 | 0.00 | 42 | 1005.6 |
| 20260503182803 | 20 | 254 | 27.4 | 33.8 | 0.00 | 0.00 | 0.00 | 42 | 1005.6 |
| 20260503182703 | 20 | 257 | 22.5 | 32.2 | 0.00 | 0.00 | 0.00 | 44 | 1005.6 |
| 20260503182403 | 20 | 267 | 22.5 | 32.2 | 0.00 | 0.00 | 0.00 | 45 | 1005.6 |
| 20260503182305 | 20 | 270 | 17.7 | 30.6 | 0.00 | 0.00 | 0.00 | 45 | 1005.6 |
| 20260503182203 | 20 | 274 | 20.9 | 30.6 | 0.00 | 0.00 | 0.00 | 45 | 1005.6 |
| 20260503182103 | 20 | 277 | 22.5 | 30.6 | 0.00 | 0.00 | 0.00 | 44 | 1005.6 |
| 20260503182005 | 20 | 279 | 19.3 | 30.6 | 0.00 | 0.00 | 0.00 | 45 | 1005.6 |
| 20260503181903 | 20 | 281 | 19.3 | 30.6 | 0.00 | 0.00 | 0.00 | 44 | 1005.6 |
| 20260503181803 | 20 | 280 | 19.3 | 25.7 | 0.00 | 0.00 | 0.00 | 46 | 1005.6 |
| 20260503181603 | 20 | 272 | 12.9 | 25.7 | 0.00 | 0.00 | 0.00 | 45 | 1005.6 |
| 20260503181504 | 20 | 271 | 8.0 | 25.7 | 0.00 | 0.00 | 0.00 | 47 | 1005.6 |
| 20260503181103 | 20 | 273 | 16.1 | 33.8 | 0.00 | 0.00 | 0.00 | 46 | 1005.6 |
| 20260503180903 | 20 | 274 | 8.0 | 33.8 | 0.00 | 0.00 | 0.00 | 46 | 1004.5 |
| 20260503180803 | 20 | 274 | 12.9 | 33.8 | 0.00 | 0.00 | 0.00 | 47 | 1004.5 |
| 20260503180703 | 20 | 279 | 16.1 | 33.8 | 0.00 | 0.00 | 0.00 | 47 | 1004.5 |
| 20260503180602 | 20 | 277 | 14.5 | 33.8 | 0.00 | 0.00 | 0.00 | 47 | 1004.5 |
| 20260503180503 | 20 | 277 | 14.5 | 33.8 | 0.00 | 0.00 | 0.00 | 47 | 1004.5 |
| 20260503180403 | 20 | 275 | 20.9 | 33.8 | 0.00 | 0.00 | 0.00 | 48 | 1004.5 |
| 20260503180303 | 20 | 270 | 6.4 | 22.5 | 0.00 | 0.00 | 0.00 | 47 | 1004.5 |
| 20260503180203 | 20 | 263 | 6.4 | 35.4 | 0.00 | 0.00 | 0.00 | 47 | 1004.5 |
| 20260503180103 | 20 | 262 | 14.5 | 35.4 | 0.00 | 0.00 | 0.00 | 47 | 1004.5 |
| 20260503180004 | 20 | 262 | 14.5 | 35.4 | 0.00 | 0.00 | 0.00 | 47 | 1004.5 |
| 20260503175903 | 20 | 257 | 9.7 | 35.4 | 0.00 | 0.00 | 0.00 | 47 | 1004.5 |
| 20260503175803 | 20 | 253 | 9.7 | 35.4 | 0.00 | 0.00 | 0.00 | 47 | 1004.5 |
| 20260503175703 | 20 | 252 | 12.9 | 35.4 | 0.00 | 0.00 | 0.00 | 47 | 1004.5 |
| 20260503175603 | 20 | 254 | 14.5 | 35.4 | 0.00 | 0.00 | 0.00 | 47 | 1004.5 |
| 20260503175503 | 20 | 251 | 17.7 | 35.4 | 0.00 | 0.00 | 0.00 | 47 | 1004.5 |
| 20260503175403 | 19 | 255 | 25.7 | 35.4 | 0.00 | 0.00 | 0.00 | 47 | 1004.5 |
| 20260503175304 | 19 | 254 | 30.6 | 35.4 | 0.00 | 0.00 | 0.00 | 47 | 1004.5 |
| 20260503175203 | 19 | 254 | 19.3 | 33.8 | 0.00 | 0.00 | 0.00 | 48 | 1004.5 |
| 20260503175103 | 19 | 255 | 16.1 | 27.4 | 0.00 | 0.00 | 0.00 | 48 | 1004.5 |
| 20260503174902 | 19 | 255 | 16.1 | 27.4 | 0.00 | 0.00 | 0.00 | 48 | 1004.5 |
| 20260503174803 | 19 | 258 | 9.7 | 27.4 | 0.00 | 0.00 | 0.00 | 49 | 1004.5 |
| 20260503174703 | 19 | 254 | 9.7 | 27.4 | 0.00 | 0.00 | 0.00 | 49 | 1004.5 |
| 20260503174603 | 19 | 251 | 8.0 | 27.4 | 0.00 | 0.00 | 0.00 | 48 | 1004.5 |
| 20260503174503 | 19 | 249 | 16.1 | 27.4 | 0.00 | 0.00 | 0.00 | 48 | 1004.5 |
| 20260503174402 | 19 | 249 | 22.5 | 27.4 | 0.00 | 0.00 | 0.00 | 48 | 1004.5 |
| 20260503174203 | 19 | 249 | 12.9 | 27.4 | 0.00 | 0.00 | 0.00 | 49 | 1004.5 |
| 20260503174103 | 19 | 248 | 9.7 | 27.4 | 0.00 | 0.00 | 0.00 | 49 | 1004.5 |
| 20260503174003 | 19 | 249 | 11.3 | 27.4 | 0.00 | 0.00 | 0.00 | 49 | 1005.6 |
| 20260503173903 | 18 | 250 | 19.3 | 32.2 | 0.00 | 0.00 | 0.00 | 49 | 1005.6 |
| 20260503173803 | 18 | 250 | 20.9 | 32.2 | 0.00 | 0.00 | 0.00 | 49 | 1005.6 |
| 20260503173603 | 18 | 256 | 22.5 | 32.2 | 0.00 | 0.00 | 0.00 | 49 | 1005.6 |
| 20260503173503 | 18 | 259 | 20.9 | 32.2 | 0.00 | 0.00 | 0.00 | 49 | 1005.6 |
| 20260503173303 | 18 | 258 | 12.9 | 32.2 | 0.00 | 0.00 | 0.00 | 48 | 1005.6 |
| 20260503173202 | 18 | 260 | 22.5 | 32.2 | 0.00 | 0.00 | 0.00 | 48 | 1005.6 |
| 20260503173103 | 18 | 263 | 22.5 | 32.2 | 0.00 | 0.00 | 0.00 | 49 | 1005.6 |
| 20260503173004 | 18 | 264 | 19.3 | 32.2 | 0.00 | 0.00 | 0.00 | 49 | 1005.6 |
| 20260503172903 | 18 | 264 | 11.3 | 22.5 | 0.00 | 0.00 | 0.00 | 49 | 1005.6 |
| 20260503172704 | 18 | 266 | 11.3 | 27.4 | 0.00 | 0.00 | 0.00 | 51 | 1005.6 |
| 20260503172603 | 18 | 264 | 14.5 | 27.4 | 0.00 | 0.00 | 0.00 | 51 | 1005.6 |
| 20260503172403 | 18 | 263 | 11.3 | 38.6 | 0.00 | 0.00 | 0.00 | 51 | 1005.6 |
| 20260503172305 | 18 | 265 | 12.9 | 38.6 | 0.00 | 0.00 | 0.00 | 52 | 1005.6 |
| 20260503172203 | 18 | 264 | 14.5 | 38.6 | 0.00 | 0.00 | 0.00 | 51 | 1005.6 |
| 20260503172103 | 18 | 263 | 17.7 | 38.6 | 0.00 | 0.00 | 0.00 | 51 | 1005.6 |
| 20260503172004 | 18 | 264 | 19.3 | 38.6 | 0.00 | 0.00 | 0.00 | 51 | 1005.6 |
| 20260503171903 | 18 | 266 | 14.5 | 38.6 | 0.00 | 0.00 | 0.00 | 52 | 1005.6 |
| 20260503171804 | 18 | 268 | 22.5 | 38.6 | 0.00 | 0.00 | 0.00 | 51 | 1005.6 |
| 20260503171703 | 18 | 267 | 22.5 | 38.6 | 0.00 | 0.00 | 0.00 | 51 | 1005.6 |
| 20260503171403 | 18 | 272 | 8.0 | 27.4 | 0.00 | 0.00 | 0.00 | 53 | 1005.6 |
| 20260503171303 | 18 | 270 | 14.5 | 27.4 | 0.00 | 0.00 | 0.00 | 53 | 1005.6 |
| 20260503171203 | 18 | 270 | 8.0 | 27.4 | 0.00 | 0.00 | 0.00 | 52 | 1005.6 |
| 20260503171103 | 18 | 270 | 9.7 | 27.4 | 0.00 | 0.00 | 0.00 | 53 | 1005.6 |
| 20260503171003 | 18 | 269 | 9.7 | 27.4 | 0.00 | 0.00 | 0.00 | 53 | 1006.7 |
| 20260503170903 | 18 | 271 | 11.3 | 27.4 | 0.00 | 0.00 | 0.00 | 53 | 1006.7 |
| 20260503170803 | 18 | 268 | 20.9 | 29.0 | 0.00 | 0.00 | 0.00 | 52 | 1006.7 |
| 20260503170603 | 18 | 269 | 14.5 | 29.0 | 0.00 | 0.00 | 0.00 | 52 | 1006.7 |
| 20260503170502 | 18 | 270 | 14.5 | 29.0 | 0.00 | 0.00 | 0.00 | 52 | 1006.7 |
| 20260503170403 | 18 | 270 | 22.5 | 29.0 | 0.00 | 0.00 | 0.00 | 52 | 1006.7 |
| 20260503170303 | 18 | 268 | 17.7 | 29.0 | 0.00 | 0.00 | 0.00 | 52 | 1006.7 |
| 20260503170203 | 18 | 269 | 14.5 | 29.0 | 0.00 | 0.00 | 0.00 | 53 | 1006.7 |
| 20260503170103 | 18 | 268 | 11.3 | 29.0 | 0.00 | 0.00 | 0.00 | 54 | 1006.7 |
| 20260503160103 | 15 | 254 | 16.1 | 17.7 | 0.00 | 0.00 | 0.00 | 61 | 1007.7 |
| 20260503151004 | 13 | 251 | 6.4 | 14.5 | 0.00 | 0.00 | 0.00 | 67 | 1007.7 |
| 20260503150903 | 13 | 249 | 4.8 | 14.5 | 0.00 | 0.00 | 0.00 | 67 | 1007.7 |
| 20260503150803 | 13 | 246 | 8.0 | 14.5 | 0.00 | 0.00 | 0.00 | 67 | 1007.7 |
| 20260503150603 | 12 | 240 | 9.7 | 14.5 | 0.00 | 0.00 | 0.00 | 68 | 1007.7 |
| 20260503150503 | 12 | 240 | 9.7 | 14.5 | 0.00 | 0.00 | 0.00 | 68 | 1007.7 |
| 20260503150203 | 12 | 236 | 1.6 | 12.9 | 0.00 | 0.00 | 0.00 | 69 | 1007.7 |
| 20260503140303 | 9 | 211 | 0.0 | 9.7 | 0.00 | 0.00 | 0.00 | 76 | 1007.7 |
| 20260503140203 | 9 | 214 | 1.6 | 9.7 | 0.00 | 0.00 | 0.00 | 76 | 1007.7 |
| 20260503131403 | 8 | 322 | 0.0 | 6.4 | 0.00 | 0.00 | 0.00 | 76 | 1007.7 |
| 20260503131303 | 8 | 322 | 0.0 | 6.4 | 0.00 | 0.00 | 0.00 | 76 | 1007.7 |
| 20260503131203 | 8 | 322 | 3.2 | 6.4 | 0.00 | 0.00 | 0.00 | 76 | 1007.7 |
| 20260503131003 | 8 | 314 | 0.0 | 4.8 | 0.00 | 0.00 | 0.00 | 77 | 1007.7 |
| 20260503130903 | 8 | 0 | 0.0 | 0.0 | 0.00 | 0.00 | 0.00 | 77 | 1007.7 |
| 20260503130803 | 7 | 0 | 0.0 | 0.0 | 0.00 | 0.00 | 0.00 | 77 | 1007.7 |
| 20260503130503 | 7 | 0 | 0.0 | 0.0 | 0.00 | 0.00 | 0.00 | 79 | 1007.7 |
| 20260503130302 | 7 | 0 | 0.0 | 0.0 | 0.00 | 0.00 | 0.00 | 79 | 1007.7 |
| 20260503130203 | 7 | 0 | 0.0 | 0.0 | 0.00 | 0.00 | 0.00 | 79 | 1007.7 |
| 20260503130103 | 7 | 0 | 0.0 | 0.0 | 0.00 | 0.00 | 0.00 | 79 | 1007.7 |
| 20260503120203 | 6 | 245 | 9.7 | 20.9 | 0.00 | 0.00 | 0.00 | 77 | 1007.7 |
| 20260503110703 | 6 | 0 | 0.0 | 0.0 | 0.00 | 0.00 | 0.00 | 73 | 1007.7 |
| 20260503110603 | 6 | 0 | 0.0 | 0.0 | 0.00 | 0.00 | 0.00 | 73 | 1007.7 |
| 20260503110503 | 6 | 0 | 0.0 | 0.0 | 0.00 | 0.00 | 0.00 | 73 | 1007.7 |
| 20260503110402 | 6 | 0 | 0.0 | 0.0 | 0.00 | 0.00 | 0.00 | 73 | 1007.7 |
| 20260503110303 | 6 | 0 | 0.0 | 0.0 | 0.00 | 0.00 | 0.00 | 73 | 1007.7 |
| 20260503110203 | 6 | 0 | 0.0 | 0.0 | 0.00 | 0.00 | 0.00 | 73 | 1007.7 |
| 20260503100103 | 6 | 0 | 0.0 | 0.0 | 0.00 | 0.00 | 0.00 | 68 | 1008.8 |
| 20260503090502 | 7 | 135 | 0.0 | 4.8 | 0.00 | 0.00 | 0.00 | 65 | 1008.8 |
| 20260503090403 | 7 | 135 | 0.0 | 4.8 | 0.00 | 0.00 | 0.00 | 65 | 1008.8 |
| 20260503090303 | 7 | 135 | 0.0 | 4.8 | 0.00 | 0.00 | 0.00 | 65 | 1008.8 |
| 20260503090203 | 7 | 135 | 0.0 | 4.8 | 0.00 | 0.00 | 0.00 | 65 | 1008.8 |
| 20260503081603 | 7 | 0 | 0.0 | 0.0 | 0.00 | 0.00 | 0.00 | 62 | 1008.8 |